User: anonymous   Login
Location: Los Gatos B&B
(42.6926°N, 77.0646°W)
Time: 21:26:22
(UTC-04:00)
Language:

SL-16 R/B - Orbit

View from above orbital plane
View from above orbital plane
View from above satellite
View from above satellite

Ground track
Ground track

The orbit data is extracted from the following two-line orbital elements,

1 28353U 04021B   17112.76474669 +.00000277 +00000-0 +16992-3 0  9995
2 28353 071.0009 194.6952 0006985 278.1068 081.9261 14.14189798664315
Epoch (UTC): 22 April 2017 18:21:14
Eccentricity: 0.0006985
inclination: 71.0009°
perigee height: 840 km
apogee height: 850 km
right ascension of ascending node: 194.6952°
argument of perigee: 278.1068°
revolutions per day: 14.14189798
mean anomaly at epoch: 81.9261°
orbit number at epoch: 66431

The dashed part of the orbit path shows where the satellite is in the earth's shadow,  

DLR